Location: Altmatt
(47.1333°N, 8.7000°E)
Time: 02:50:29
(UTC+00:00)

Meteor 2-2 Rocket - Pass Details

Date: 13 July 2020
Orbit: 852 x 929 km, 81.3° (Epoch: 04 August)

Event Time Altitude Azimuth Distance (km) Brightness Sun altitude
Rises 20:40:01 0° 347° (NNW) 3,493 8.6 -11.2°
Reaches altitude 10° 20:42:30 10° 347° (NNW) 2,539 7.8 -11.4°
Maximum altitude 20:48:16 82° 261° (W) 878 4.3 -12.1°
Enters shadow 20:53:31 12° 175° (S) 2,342 6.0 -12.6°
